Weather History for KCOT - August, 2012

Change the Weather History Date:

Saturday, August 11, 2012

  Actual Average Record
Temperature  
Mean Temperature 92 °F -  
Max Temperature 105 °F 97 °F 106 °F (2011)
Min Temperature 78 °F 73 °F 73 °F (2000)
Cooling Degree Days 26    
Growing Degree Days 42 (Base 50)    
Moisture  
Dew Point 65 °F    
Average Humidity 45    
Maximum Humidity 72    
Minimum Humidity 20    
Precipitation  
Precipitation 0.00 in - - ()
Sea Level Pressure  
Sea Level Pressure 29.86 in    
Wind  
Wind Speed 5 mph (SE)    
Max Wind Speed 13 mph    
Max Gust Speed 20 mph    
Visibility 10 miles    
Events      
Averages and records for this station are not official NWS values.
T = Trace of Precipitation, MM = Missing Value Source: NWS Daily Summary

Daily Weather History Graph

Daily Weather History Graph

Search for Another Location

Airport or City:

Trip Planner

Search our weather history database for the weather conditions in past years. The results will help you decide how hot, cold, wet, or windy it might be!

Date:

Astronomy

Aug. 11, 2012 Rise Set
Actual Time 7:04 AM CDT 8:19 PM CDT
Civil Twilight 6:39 AM CDT 8:43 PM CDT
Nautical Twilight 6:09 AM CDT 9:13 PM CDT
Astronomical Twilight 5:39 AM CDT 9:43 PM CDT
Moon 1:42 AM CDT (8/11) 3:45 PM CDT (8/11)
Length of Visible Light 14h 04m
Length of Day
13h 14m
Waning Crescent, 32% of the Moon is Illuminated
Aug 11
Waning Crescent
Aug 17
New
Aug 24
First Quarter
Aug 31
Full
Sep 8
Last Quarter

Hourly Weather History & Observations

Time (CDT) Temp. Heat Index Dew Point Humidity Pressure Visibility Wind Dir Wind Speed Gust Speed Precip Events Conditions
12:53 AM 86.0 °F 90.1 °F 69.1 °F 57% 29.83 in 10.0 mi SE 5.8 mph - N/A   Clear
1:53 AM 84.9 °F 89.4 °F 70.0 °F 61% 29.83 in 10.0 mi SSE 5.8 mph - N/A   Clear
2:53 AM 84.0 °F 88.4 °F 70.0 °F 63% 29.84 in 10.0 mi SSE 5.8 mph - N/A   Clear
3:53 AM 82.0 °F 85.5 °F 69.1 °F 65% 29.85 in 10.0 mi SE 4.6 mph - N/A   Clear
4:53 AM 81.0 °F 83.8 °F 68.0 °F 65% 29.86 in 10.0 mi Calm Calm - N/A   Clear
5:53 AM 79.0 °F - 68.0 °F 69% 29.86 in 10.0 mi SE 3.5 mph - N/A   Clear
6:53 AM 78.1 °F - 68.0 °F 71% 29.88 in 10.0 mi Calm Calm - N/A   Clear
7:53 AM 79.0 °F - 69.1 °F 72% 29.90 in 10.0 mi Calm Calm - N/A   Clear
8:53 AM 82.9 °F 87.0 °F 70.0 °F 65% 29.91 in 10.0 mi SSE 6.9 mph - N/A   Clear
9:53 AM 87.1 °F 91.3 °F 69.1 °F 55% 29.91 in 10.0 mi Variable 4.6 mph - N/A   Clear
10:53 AM 91.9 °F 94.5 °F 66.0 °F 42% 29.92 in 10.0 mi South 5.8 mph - N/A   Clear
11:53 AM 97.0 °F 98.3 °F 63.0 °F 32% 29.91 in 10.0 mi Variable 3.5 mph - N/A   Clear
12:53 PM 99.0 °F 100.5 °F 62.1 °F 30% 29.90 in 10.0 mi Calm Calm - N/A   Clear
1:53 PM 102.0 °F 102.7 °F 60.1 °F 25% 29.88 in 10.0 mi Variable 6.9 mph - N/A   Clear
2:53 PM 104.0 °F 105.3 °F 60.1 °F 24% 29.86 in 10.0 mi Variable 6.9 mph 16.1 mph N/A   Clear
3:53 PM 105.1 °F 106.4 °F 60.1 °F 23% 29.83 in 10.0 mi Variable 5.8 mph - N/A   Mostly Cloudy
4:53 PM 102.9 °F 103.0 °F 57.9 °F 23% 29.82 in 10.0 mi Variable 6.9 mph 16.1 mph N/A   Partly Cloudy
5:53 PM 104.0 °F 102.9 °F 55.9 °F 20% 29.81 in 10.0 mi SE 4.6 mph - N/A   Partly Cloudy
6:53 PM 102.9 °F 103.0 °F 57.9 °F 23% 29.80 in 10.0 mi ESE 12.7 mph 16.1 mph N/A   Clear
7:53 PM 100.0 °F 100.2 °F 59.0 °F 26% 29.81 in 10.0 mi ESE 10.4 mph - N/A   Clear
8:53 PM 97.0 °F 97.4 °F 61.0 °F 30% 29.82 in 10.0 mi ESE 8.1 mph - N/A   Clear
9:53 PM 93.0 °F 94.2 °F 63.0 °F 37% 29.83 in 10.0 mi ESE 11.5 mph - N/A   Clear
10:53 PM 91.0 °F 96.6 °F 70.0 °F 50% 29.85 in 10.0 mi SE 11.5 mph 19.6 mph N/A   Clear
11:53 PM 88.0 °F 94.7 °F 72.0 °F 59% 29.86 in 10.0 mi SSE 8.1 mph - N/A   Clear